Location: Unspecified
(35.7250°N, 0.0000°E)
Time: 13:57:47
(UTC+00:00)

Courier 1B Rocket - Pass Details

Date: 26 June 2019
Orbit: 920 x 1202 km, 28.3° (Epoch: 19 August)

Event Time Altitude Azimuth Distance (km) Brightness Sun altitude
Exits shadow 01:43:33 25° 140° (SE) 2,064 6.5 -26.3°
Drops below altitude 10° 01:47:42 10° 106° (ESE) 2,883 7.6 -25.9°
Sets 01:50:46 0° 94° (E) 3,789 8.4 -25.6°
